Regional Weather Roundup
Issued by NWS Memphis, TN

Home | Current Version | Previous Version | Text Only | Print | Product List | Glossary On
Versions: 1 2 3 4 5 6 7 8 9 10 11 12 13 14 15 16 17 18 19 20 21 22 23 24 25 26 27 28 29 30 31 32 33 34 35 36 37 38 39 40 41 42 43 44 45 46 47 48 49 50
000
ASUS44 KMEG 101810
RWRMEG
MEMPHIS CWA HOURLY WEATHER ROUNDUP
NATIONAL WEATHER SERVICE MEMPHIS TN
1200 PM CST WED FEB 10 2016

...WEST TENNESSEE...

CITY           SKY/WX    TMP DP  RH WIND       PRES   REMARKS
MEMPHIS INTL   MOSUNNY   36   8  31 W7        30.26F WCI  30
6HR MIN TEMP:  24; 6HR MAX TEMP:  36;

NWS MEMPHIS      N/A     34 N/A N/A MISG        N/A
JACKSON        SUNNY     32   7  35 W13       30.27F WCI  22
6HR MIN TEMP:  20; 6HR MAX TEMP:  32;

DYERSBURG      MOSUNNY   30   9  40 SW10G16   30.27F WCI  21
6HR MIN TEMP:  19; 6HR MAX TEMP:  30;

UNION CITY     MOSUNNY   27  10  50 SW8       30.23F WCI  18
PARIS          SUNNY     25   7  46 W8        30.21F WCI  16


...EASTERN ARKANSAS...

CITY           SKY/WX    TMP DP  RH WIND       PRES   REMARKS
JONESBORO      CLOUDY    30   6  36 W6        30.25F WCI  24
6HR MIN TEMP:  21; 6HR MAX TEMP:  31;

WEST MEMPHIS   PTSUNNY   35  11  36 VRB3      30.27F
6HR MIN TEMP:  24; 6HR MAX TEMP:  35;

BATESVILLE     SUNNY     39  10  30 W5        30.24F
6HR MIN TEMP:  21; 6HR MAX TEMP:  39;

NEWPORT        CLOUDY    37   7  29 SW6       30.27F WCI  32
6HR MIN TEMP:  22; 6HR MAX TEMP:  38;

WALNUT RIDGE   CLOUDY    32   7  34 SW7       30.25F WCI  26
6HR MIN TEMP:  19; 6HR MAX TEMP:  32;

BLYTHEVILLE    PTSUNNY   32   7  35 SW8       30.26F WCI  25
6HR MIN TEMP:  21; 6HR MAX TEMP:  35;

NW BLYTHEVILLE CLOUDY    32   7  34 W5        30.26F WCI  27
SEARCY         SUNNY     40  12  32 CALM      30.27F
6HR MIN TEMP:  19; 6HR MAX TEMP:  40;

STUTTGART      SUNNY     39  16  38 W6        30.29F WCI  35
6HR MIN TEMP:  27; 6HR MAX TEMP:  39;

PINE BLUFF     SUNNY     42  12  29 VRB3      30.29F
6HR MIN TEMP:  26; 6HR MAX TEMP:  42;

MONTICELLO     SUNNY     46  12  25 SW7       30.28F
6HR MIN TEMP:  25; 6HR MAX TEMP:  46;



...NORTH MISSISSIPPI...

CITY           SKY/WX    TMP DP  RH WIND       PRES   REMARKS
TUPELO         SUNNY     38   5  25 SW14      30.28F WCI  30
6HR MIN TEMP:  23; 6HR MAX TEMP:  38;

OXFORD         MOSUNNY   36   5  27 W8        30.29F WCI  29
OLIVE BRANCH   PTSUNNY   32   9  37 W6        30.27F WCI  26
TUNICA         SUNNY     34  10  37 CALM      30.29F
CORINTH        SUNNY     34   5  29 W13       30.26F WCI  25
GREENWOOD      SUNNY     39  11  31 W5        30.29F
6HR MIN TEMP:  19; 6HR MAX TEMP:  40;

COLUMBUS       SUNNY     39   9  29 W12       30.27F WCI  32
6HR MIN TEMP:  24; 6HR MAX TEMP:  39;

STARKVILLE     FAIR      41  10  28 W5        30.27F
GOLDEN TRIANGL SUNNY     39  10  30 NW7       30.28F WCI  34


...SOUTHEAST MISSOURI...

CITY           SKY/WX    TMP DP  RH WIND       PRES   REMARKS
WEST PLAINS    PTSUNNY   32  10  40 S6        30.16F WCI  26
6HR MIN TEMP:  16; 6HR MAX TEMP:  32;

POPLAR BLUFF   CLOUDY    29   7  39 VRB7      30.21F WCI  22
6HR MIN TEMP:  18; 6HR MAX TEMP:  29;

CAPE GIRARDEAU CLOUDY    26   5  40 W8        30.22F WCI  18
6HR MIN TEMP:  12; 6HR MAX TEMP:  26;



...NORTHWEST ALABAMA...

CITY           SKY/WX    TMP DP  RH WIND       PRES   REMARKS
MUSCLE SHOALS  SUNNY     33   7  33 W13G20    30.25F WCI  24
6HR MIN TEMP:  19; 6HR MAX TEMP:  33;



...MIDDLE TENNESSEE...

CITY           SKY/WX    TMP DP  RH WIND       PRES   REMARKS
NASHVILLE      PTSUNNY   26  10  50 W12       30.21S WCI  16
6HR MIN TEMP:  19; 6HR MAX TEMP:  26; 6HR PCP: TRACE;

CLARKSVILLE    SUNNY     24   9  52 NW7       30.20F WCI  16
6HR MIN TEMP:  14; 6HR MAX TEMP:  24;

COLUMBIA       SUNNY     28  12  50 VRB5      30.18F WCI  23


...WESTERN KENTUCKY...

CITY           SKY/WX    TMP DP  RH WIND       PRES   REMARKS
PADUCAH        CLOUDY    24  10  55 SW8       30.20F WCI  15
6HR MIN TEMP:  15; 6HR MAX TEMP:  25;

FORT CAMPBELL  MOSUNNY   23   9  54 NW8       30.18F WCI  14
6HR MIN TEMP:  14; 6HR MAX TEMP:  23;



...CENTRAL ARKANSAS...

CITY           SKY/WX    TMP DP  RH WIND       PRES   REMARKS
LITTLE ROCK    MOSUNNY   42  11  28 E3        30.27F
6HR MIN TEMP:  27; 6HR MAX TEMP:  42;



SKY/WX REPORTED AS FAIR MEANS FEW OR NO CLOUDS BELOW
12 THOUSAND FEET.




USA.gov is the U.S. government's official web portal to all federal, state and local government web resources and services.